Tracking 20942 objects as of 11-Jul-2020
HD Live streaming from Space Station
objects crossing your sky now

SL-12 R/B(2)

Track SL-12 R/B(2) now!


NORAD ID: 25318
Int'l Code: 1998-025D
Perigee: 35,717.0 km
Apogee: 36,004.8 km
Inclination: 13.1 °
Period: 1,439.5 minutes
Semi major axis: 42231 km
RCS: 1.1651 m2 (large)
Launch date: April 29, 1998
Source: Commonwealth of Independent States (former USSR) (CIS)
Launch site: TYURATAM MISSILE AND SPACE COMPLEX (TTMTR)

Note: This is a ROCKET BODY
aabbcc
Your satellite tracking list
Your tracking list is empty




NASA's NSSDC Master Catalog

Two Line Element Set (TLE):
1 25318U 98025D   20192.83736743 -.00000025 +00000-0 +00000-0 0  9996
2 25318 013.1465 019.6096 0034067 070.7932 210.6563 01.00032644081080
Source of the keplerian elements: AFSPC